Time,TemperatureF,DewpointF,PressureIn,WindDirection,WindDirectionDegrees,WindSpeedMPH,WindSpeedGustMPH,Humidity,HourlyPrecipIn,Conditions,Clouds,dailyrainin,SoftwareType,DateUTC
2013-04-24 00:01:00,37.0,35.0,30.16,West,281,0.0,1.0,91,0.00,,,0.00,,2013-04-24 04:01:00,
2013-04-24 00:03:00,36.0,34.0,30.15,West,281,0.0,1.0,91,0.00,,,0.00,,2013-04-24 04:03:00,
2013-04-24 00:12:00,36.0,34.0,30.15,West,281,0.0,1.0,91,0.00,,,0.00,,2013-04-24 04:12:00,
2013-04-24 00:23:00,36.0,34.0,30.14,West,281,0.0,0.0,91,0.00,,,0.00,,2013-04-24 04:23:00,
2013-04-24 00:33:00,35.0,33.0,30.15,West,274,0.0,1.0,91,0.00,,,0.00,,2013-04-24 04:33:00,
2013-04-24 00:43:00,35.0,33.0,30.15,West,274,0.0,1.0,91,0.00,,,0.00,,2013-04-24 04:43:00,
2013-04-24 00:53:00,35.0,33.0,30.15,West,274,0.0,0.0,92,0.00,,,0.00,,2013-04-24 04:53:00,
2013-04-24 01:02:00,35.0,33.0,30.15,West,272,0.0,0.0,92,0.00,,,0.00,,2013-04-24 05:02:00,
2013-04-24 01:13:00,35.0,33.0,30.15,West,272,0.0,0.0,92,0.00,,,0.00,,2013-04-24 05:13:00,
2013-04-24 01:22:00,35.0,33.0,30.14,West,273,0.0,1.0,93,0.00,,,0.00,,2013-04-24 05:22:00,
2013-04-24 01:32:00,35.0,33.0,30.13,WNW,284,0.0,2.0,92,0.00,,,0.00,,2013-04-24 05:32:00,
2013-04-24 01:42:00,35.0,33.0,30.13,WNW,284,0.0,2.0,92,0.00,,,0.00,,2013-04-24 05:42:00,
2013-04-24 01:52:00,34.0,32.0,30.12,WNW,291,1.0,2.0,93,0.00,,,0.00,,2013-04-24 05:52:00,
2013-04-24 02:02:00,34.0,32.0,30.12,West,274,0.0,2.0,93,0.00,,,0.00,,2013-04-24 06:02:00,
2013-04-24 02:12:00,34.0,32.0,30.12,West,274,0.0,2.0,93,0.00,,,0.00,,2013-04-24 06:12:00,
2013-04-24 02:22:00,34.0,32.0,30.12,WNW,297,0.0,1.0,93,0.00,,,0.00,,2013-04-24 06:22:00,
2013-04-24 02:33:00,34.0,32.0,30.11,West,269,0.0,1.0,93,0.00,,,0.00,,2013-04-24 06:33:00,
2013-04-24 02:42:00,34.0,32.0,30.11,West,269,0.0,1.0,93,0.00,,,0.00,,2013-04-24 06:42:00,
2013-04-24 02:52:00,33.0,31.0,30.11,West,270,0.0,1.0,93,0.00,,,0.00,,2013-04-24 06:52:00,
2013-04-24 03:02:00,33.0,31.0,30.11,West,274,1.0,2.0,93,0.00,,,0.00,,2013-04-24 07:02:00,
2013-04-24 03:11:00,33.0,31.0,30.11,West,274,1.0,2.0,93,0.00,,,0.00,,2013-04-24 07:11:00,
2013-04-24 03:22:00,33.0,31.0,30.10,WNW,299,1.0,2.0,93,0.00,,,0.00,,2013-04-24 07:22:00,
2013-04-24 03:32:00,33.0,31.0,30.10,West,264,0.0,1.0,93,0.00,,,0.00,,2013-04-24 07:32:00,
2013-04-24 03:42:00,33.0,31.0,30.10,West,264,0.0,1.0,93,0.00,,,0.00,,2013-04-24 07:42:00,
2013-04-24 03:52:00,33.0,31.0,30.10,WNW,294,0.0,1.0,93,0.00,,,0.00,,2013-04-24 07:52:00,
2013-04-24 04:02:00,32.0,30.0,30.10,WNW,300,0.0,1.0,94,0.00,,,0.00,,2013-04-24 08:02:00,
2013-04-24 04:12:00,32.0,30.0,30.10,WNW,300,0.0,1.0,94,0.00,,,0.00,,2013-04-24 08:12:00,
2013-04-24 04:21:00,32.0,30.0,30.09,NW,309,0.0,1.0,94,0.00,,,0.00,,2013-04-24 08:21:00,
2013-04-24 04:33:00,32.0,30.0,30.09,West,270,0.0,1.0,94,0.00,,,0.00,,2013-04-24 08:33:00,
2013-04-24 04:42:00,32.0,30.0,30.09,West,270,0.0,1.0,94,0.00,,,0.00,,2013-04-24 08:42:00,
2013-04-24 04:52:00,31.0,29.0,30.09,West,270,0.0,1.0,94,0.00,,,0.00,,2013-04-24 08:52:00,
2013-04-24 05:02:00,31.0,29.0,30.09,West,270,0.0,0.0,94,0.00,,,0.00,,2013-04-24 09:02:00,
2013-04-24 05:11:00,31.0,29.0,30.09,West,270,0.0,0.0,94,0.00,,,0.00,,2013-04-24 09:11:00,
2013-04-24 05:21:00,31.0,29.0,30.09,West,270,0.0,0.0,94,0.00,,,0.00,,2013-04-24 09:21:00,
2013-04-24 05:33:00,31.0,29.0,30.09,NW,315,0.0,2.0,94,0.00,,,0.00,,2013-04-24 09:33:00,
2013-04-24 05:42:00,31.0,29.0,30.09,NW,315,0.0,2.0,94,0.00,,,0.00,,2013-04-24 09:42:00,
2013-04-24 05:53:00,31.0,30.0,30.08,West,270,1.0,2.0,95,0.00,,,0.00,,2013-04-24 09:53:00,
2013-04-24 06:02:00,31.0,29.0,30.09,West,266,0.0,2.0,94,0.00,,,0.00,,2013-04-24 10:02:00,
2013-04-24 06:12:00,31.0,29.0,30.09,West,266,0.0,2.0,94,0.00,,,0.00,,2013-04-24 10:12:00,
2013-04-24 06:23:00,30.0,28.0,30.09,West,276,0.0,1.0,94,0.00,,,0.00,,2013-04-24 10:23:00,
2013-04-24 06:33:00,30.0,29.0,30.08,WNW,284,0.0,1.0,95,0.00,,,0.00,,2013-04-24 10:33:00,
2013-04-24 06:42:00,30.0,29.0,30.08,WNW,284,0.0,1.0,95,0.00,,,0.00,,2013-04-24 10:42:00,
2013-04-24 06:53:00,30.0,29.0,30.08,WNW,284,0.0,1.0,95,0.00,,,0.00,,2013-04-24 10:53:00,
2013-04-24 07:02:00,31.0,30.0,30.09,WNW,284,0.0,1.0,95,0.00,,,0.00,,2013-04-24 11:02:00,
2013-04-24 07:11:00,31.0,30.0,30.09,WNW,284,0.0,1.0,95,0.00,,,0.00,,2013-04-24 11:11:00,
2013-04-24 07:22:00,32.0,31.0,30.09,WNW,283,0.0,0.0,95,0.00,,,0.00,,2013-04-24 11:22:00,
2013-04-24 07:32:00,34.0,32.0,30.08,NW,316,0.0,1.0,94,0.00,,,0.00,,2013-04-24 11:32:00,
2013-04-24 07:42:00,34.0,32.0,30.08,NW,316,0.0,1.0,94,0.00,,,0.00,,2013-04-24 11:42:00,
2013-04-24 07:53:00,35.0,33.0,30.08,WNW,294,1.0,4.0,92,0.00,,,0.00,,2013-04-24 11:53:00,
2013-04-24 08:02:00,37.0,34.0,30.07,NW,309,1.0,2.0,90,0.00,,,0.00,,2013-04-24 12:02:00,
2013-04-24 08:11:00,37.0,34.0,30.07,NW,309,1.0,2.0,90,0.00,,,0.00,,2013-04-24 12:11:00,
2013-04-24 08:22:00,38.0,35.0,30.07,WNW,285,2.0,3.0,88,0.00,,,0.00,,2013-04-24 12:22:00,
2013-04-24 08:32:00,41.0,37.0,30.06,WNW,302,0.0,2.0,86,0.00,,,0.00,,2013-04-24 12:32:00,
2013-04-24 08:42:00,41.0,37.0,30.06,WNW,302,0.0,2.0,86,0.00,,,0.00,,2013-04-24 12:42:00,
2013-04-24 08:52:00,44.0,39.0,30.05,NW,325,0.0,2.0,82,0.00,,,0.00,,2013-04-24 12:52:00,
2013-04-24 09:01:00,47.0,41.0,30.04,WNW,295,0.0,2.0,79,0.00,,,0.00,,2013-04-24 13:01:00,
2013-04-24 09:12:00,47.0,41.0,30.04,WNW,295,0.0,2.0,79,0.00,,,0.00,,2013-04-24 13:12:00,
2013-04-24 09:22:00,48.0,41.0,30.04,ESE,120,0.0,3.0,77,0.00,,,0.00,,2013-04-24 13:22:00,
2013-04-24 09:32:00,50.0,42.0,30.02,ESE,120,0.0,4.0,73,0.00,,,0.00,,2013-04-24 13:32:00,
2013-04-24 09:41:00,50.0,42.0,30.02,ESE,120,0.0,4.0,73,0.00,,,0.00,,2013-04-24 13:41:00,
2013-04-24 09:52:00,52.0,43.0,30.01,ESE,120,1.0,5.0,71,0.00,,,0.00,,2013-04-24 13:52:00,
2013-04-24 10:01:00,53.0,43.0,30.01,ESE,103,1.0,6.0,68,0.00,,,0.00,,2013-04-24 14:01:00,
2013-04-24 10:11:00,53.0,43.0,30.01,ESE,103,1.0,6.0,68,0.00,,,0.00,,2013-04-24 14:11:00,
2013-04-24 10:22:00,53.0,42.0,29.99,ESE,120,2.0,6.0,67,0.00,,,0.00,,2013-04-24 14:22:00,
2013-04-24 10:32:00,54.0,42.0,29.98,SE,127,4.0,8.0,64,0.00,,,0.00,,2013-04-24 14:32:00,
2013-04-24 10:42:00,54.0,42.0,29.98,SE,127,4.0,8.0,64,0.00,,,0.00,,2013-04-24 14:42:00,
2013-04-24 10:52:00,54.0,43.0,29.97,ESE,111,1.0,6.0,66,0.00,,,0.00,,2013-04-24 14:52:00,
2013-04-24 11:01:00,55.0,43.0,29.96,ESE,107,3.0,8.0,64,0.00,,,0.00,,2013-04-24 15:01:00,
2013-04-24 11:11:00,55.0,43.0,29.96,ESE,107,3.0,8.0,64,0.00,,,0.00,,2013-04-24 15:11:00,
2013-04-24 11:22:00,56.0,44.0,29.96,ESE,120,2.0,8.0,63,0.00,,,0.00,,2013-04-24 15:22:00,
2013-04-24 11:33:00,57.0,44.0,29.96,ESE,120,1.0,4.0,62,0.00,,,0.00,,2013-04-24 15:33:00,
2013-04-24 11:43:00,57.0,44.0,29.96,ESE,120,1.0,4.0,62,0.00,,,0.00,,2013-04-24 15:43:00,
2013-04-24 11:53:00,57.0,44.0,29.94,East,80,1.0,5.0,61,0.00,,,0.00,,2013-04-24 15:53:00,
2013-04-24 12:03:00,59.0,44.0,29.93,SE,136,1.0,7.0,57,0.00,,,0.00,,2013-04-24 16:03:00,
2013-04-24 12:12:00,59.0,44.0,29.93,SE,136,1.0,7.0,57,0.00,,,0.00,,2013-04-24 16:12:00,
2013-04-24 12:23:00,60.0,44.0,29.92,ESE,120,3.0,6.0,55,0.00,,,0.00,,2013-04-24 16:23:00,
2013-04-24 12:32:00,61.0,45.0,29.91,ESE,117,2.0,5.0,56,0.00,,,0.00,,2013-04-24 16:32:00,
2013-04-24 12:42:00,61.0,45.0,29.91,ESE,117,2.0,5.0,56,0.00,,,0.00,,2013-04-24 16:42:00,
2013-04-24 12:53:00,62.0,46.0,29.88,SE,140,3.0,7.0,55,0.00,,,0.00,,2013-04-24 16:53:00,
2013-04-24 13:02:00,62.0,46.0,29.87,East,82,2.0,9.0,56,0.00,,,0.00,,2013-04-24 17:02:00,
2013-04-24 13:12:00,62.0,46.0,29.87,East,82,2.0,9.0,56,0.00,,,0.00,,2013-04-24 17:12:00,
2013-04-24 13:22:00,63.0,46.0,29.86,ENE,75,1.0,10.0,54,0.00,,,0.00,,2013-04-24 17:22:00,
2013-04-24 13:32:00,65.0,47.0,29.85,ESE,117,2.0,6.0,52,0.00,,,0.00,,2013-04-24 17:32:00,
2013-04-24 13:42:00,65.0,47.0,29.85,ESE,117,2.0,6.0,52,0.00,,,0.00,,2013-04-24 17:42:00,
2013-04-24 13:52:00,65.0,46.0,29.84,SE,127,5.0,11.0,51,0.00,,,0.00,,2013-04-24 17:52:00,
2013-04-24 14:02:00,64.0,46.0,29.84,SE,131,3.0,7.0,52,0.00,,,0.00,,2013-04-24 18:02:00,
2013-04-24 14:12:00,64.0,46.0,29.84,SE,131,3.0,7.0,52,0.00,,,0.00,,2013-04-24 18:12:00,
2013-04-24 14:22:00,63.0,46.0,29.84,SE,143,3.0,7.0,53,0.00,,,0.00,,2013-04-24 18:22:00,
2013-04-24 14:33:00,63.0,46.0,29.83,SE,146,2.0,6.0,54,0.00,,,0.00,,2013-04-24 18:33:00,
2013-04-24 14:42:00,63.0,46.0,29.83,SE,146,2.0,6.0,54,0.00,,,0.00,,2013-04-24 18:42:00,
2013-04-24 14:52:00,64.0,47.0,29.82,ENE,77,1.0,5.0,53,0.00,,,0.00,,2013-04-24 18:52:00,
2013-04-24 15:02:00,67.0,48.0,29.80,ESE,102,1.0,6.0,50,0.00,,,0.00,,2013-04-24 19:02:00,
2013-04-24 15:11:00,67.0,48.0,29.80,ESE,102,1.0,6.0,50,0.00,,,0.00,,2013-04-24 19:11:00,
2013-04-24 15:22:00,68.0,47.0,29.78,East,100,2.0,6.0,47,0.00,,,0.00,,2013-04-24 19:22:00,
2013-04-24 15:32:00,69.0,48.0,29.77,ESE,117,0.0,7.0,48,0.00,,,0.00,,2013-04-24 19:32:00,
2013-04-24 15:42:00,69.0,48.0,29.77,ESE,117,0.0,7.0,48,0.00,,,0.00,,2013-04-24 19:42:00,
2013-04-24 15:52:00,69.0,47.0,29.77,SE,130,2.0,12.0,46,0.00,,,0.00,,2013-04-24 19:52:00,
2013-04-24 16:02:00,69.0,48.0,29.77,SE,125,3.0,8.0,47,0.00,,,0.00,,2013-04-24 20:02:00,
2013-04-24 16:11:00,69.0,48.0,29.77,SE,125,3.0,8.0,47,0.00,,,0.00,,2013-04-24 20:11:00,
2013-04-24 16:22:00,69.0,48.0,29.76,SE,130,1.0,5.0,48,0.00,,,0.00,,2013-04-24 20:22:00,
2013-04-24 16:32:00,68.0,49.0,29.75,ESE,109,0.0,5.0,50,0.00,,,0.00,,2013-04-24 20:32:00,
2013-04-24 16:42:00,68.0,49.0,29.75,ESE,109,0.0,5.0,50,0.00,,,0.00,,2013-04-24 20:42:00,
2013-04-24 16:52:00,68.0,49.0,29.76,SE,125,0.0,3.0,51,0.00,,,0.00,,2013-04-24 20:52:00,
2013-04-24 17:02:00,67.0,49.0,29.76,West,278,0.0,2.0,52,0.00,,,0.00,,2013-04-24 21:02:00,
2013-04-24 17:11:00,67.0,49.0,29.76,West,278,0.0,2.0,52,0.00,,,0.00,,2013-04-24 21:11:00,
2013-04-24 17:22:00,67.0,50.0,29.76,ENE,57,0.0,0.0,55,0.00,,,0.00,,2013-04-24 21:22:00,
2013-04-24 17:33:00,66.0,51.0,29.75,NE,56,0.0,0.0,58,0.00,,,0.00,,2013-04-24 21:33:00,
2013-04-24 17:42:00,66.0,51.0,29.75,NE,56,0.0,0.0,58,0.00,,,0.00,,2013-04-24 21:42:00,
2013-04-24 17:53:00,65.0,52.0,29.76,NE,56,0.0,0.0,62,0.00,,,0.00,,2013-04-24 21:53:00,
2013-04-24 18:03:00,64.0,52.0,29.75,NE,56,0.0,1.0,64,0.00,,,0.00,,2013-04-24 22:03:00,
2013-04-24 18:12:00,64.0,52.0,29.75,NE,56,0.0,1.0,64,0.00,,,0.00,,2013-04-24 22:12:00,
2013-04-24 18:22:00,64.0,52.0,29.74,WNW,300,0.0,0.0,66,0.00,,,0.00,,2013-04-24 22:22:00,
2013-04-24 18:33:00,63.0,52.0,29.75,WNW,301,0.0,0.0,68,0.00,,,0.00,,2013-04-24 22:33:00,
2013-04-24 18:42:00,63.0,52.0,29.75,WNW,301,0.0,0.0,68,0.00,,,0.00,,2013-04-24 22:42:00,
2013-04-24 18:52:00,61.0,53.0,29.73,WNW,288,1.0,2.0,75,0.00,,,0.00,,2013-04-24 22:52:00,
2013-04-24 19:02:00,61.0,54.0,29.72,West,273,0.0,2.0,78,0.00,,,0.00,,2013-04-24 23:02:00,
2013-04-24 19:12:00,61.0,54.0,29.72,West,273,0.0,2.0,78,0.00,,,0.00,,2013-04-24 23:12:00,
2013-04-24 19:22:00,60.0,53.0,29.71,NNW,328,1.0,3.0,77,0.00,,,0.00,,2013-04-24 23:22:00,
2013-04-24 19:32:00,60.0,53.0,29.70,NNW,346,0.0,2.0,77,0.00,,,0.00,,2013-04-24 23:32:00,
2013-04-24 19:42:00,60.0,53.0,29.70,NNW,346,0.0,2.0,77,0.00,,,0.00,,2013-04-24 23:42:00,
2013-04-24 19:52:00,60.0,52.0,29.72,West,273,0.0,2.0,76,0.00,,,0.00,,2013-04-24 23:52:00,
2013-04-24 20:02:00,60.0,53.0,29.73,West,271,0.0,1.0,79,0.00,,,0.00,,2013-04-25 00:02:00,
2013-04-24 20:12:00,60.0,53.0,29.73,West,271,0.0,1.0,79,0.00,,,0.00,,2013-04-25 00:12:00,
2013-04-24 20:22:00,59.0,54.0,29.77,WSW,255,0.0,2.0,85,0.02,,,0.02,,2013-04-25 00:22:00,
2013-04-24 20:32:00,58.0,55.0,29.78,WSW,255,1.0,5.0,89,0.07,,,0.07,,2013-04-25 00:32:00,
2013-04-24 20:42:00,58.0,55.0,29.78,WSW,255,1.0,5.0,89,0.07,,,0.07,,2013-04-25 00:42:00,
2013-04-24 20:52:00,58.0,55.0,29.75,SE,133,0.0,2.0,90,0.08,,,0.08,,2013-04-25 00:52:00,
2013-04-24 21:02:00,58.0,55.0,29.74,SSW,211,0.0,1.0,91,0.09,,,0.09,,2013-04-25 01:02:00,
2013-04-24 21:11:00,58.0,55.0,29.74,SSW,211,0.0,1.0,91,0.09,,,0.09,,2013-04-25 01:11:00,
2013-04-24 21:23:00,57.0,55.0,29.75,WNW,293,0.0,2.0,93,0.07,,,0.09,,2013-04-25 01:23:00,
2013-04-24 21:32:00,57.0,55.0,29.75,ENE,61,0.0,1.0,93,0.02,,,0.09,,2013-04-25 01:32:00,
2013-04-24 21:42:00,57.0,55.0,29.75,ENE,61,0.0,1.0,93,0.02,,,0.09,,2013-04-25 01:42:00,
2013-04-24 21:53:00,56.0,54.0,29.74,NE,40,0.0,1.0,93,0.01,,,0.09,,2013-04-25 01:53:00,
2013-04-24 22:02:00,56.0,54.0,29.74,SE,129,0.0,1.0,94,0.00,,,0.09,,2013-04-25 02:02:00,
2013-04-24 22:11:00,56.0,54.0,29.74,SE,129,0.0,1.0,94,0.00,,,0.09,,2013-04-25 02:11:00,
2013-04-24 22:22:00,57.0,55.0,29.73,SE,132,2.0,6.0,94,0.00,,,0.09,,2013-04-25 02:22:00,
2013-04-24 22:32:00,57.0,54.0,29.72,SE,128,1.0,4.0,91,0.00,,,0.09,,2013-04-25 02:32:00,
2013-04-24 22:42:00,57.0,54.0,29.72,SE,128,1.0,4.0,91,0.00,,,0.09,,2013-04-25 02:42:00,
2013-04-24 22:52:00,57.0,54.0,29.72,SE,128,1.0,4.0,91,0.00,,,0.09,,2013-04-25 02:52:00,
2013-04-24 23:02:00,51.0,48.0,29.80,West,259,2.0,10.0,91,0.17,,,0.26,,2013-04-25 03:02:00,
2013-04-24 23:11:00,51.0,48.0,29.80,West,259,2.0,10.0,91,0.17,,,0.26,,2013-04-25 03:11:00,
2013-04-24 23:22:00,50.0,47.0,29.81,SE,132,2.0,20.0,91,0.19,,,0.28,,2013-04-25 03:22:00,
2013-04-24 23:33:00,49.0,46.0,29.82,ESE,109,2.0,8.0,91,0.21,,,0.30,,2013-04-25 03:33:00,
2013-04-24 23:43:00,49.0,46.0,29.82,ESE,109,2.0,8.0,91,0.21,,,0.30,,2013-04-25 03:43:00,
2013-04-24 23:52:00,47.0,44.0,29.87,NW,305,2.0,15.0,90,0.10,,,0.30,,2013-04-25 03:52:00,